KAL551 RKSI-RJAA

Flight info

Callsign KAL551
Flight time 1h 41m
Altitude 37000
Route EGOBA Y697 LANAT Y51 SAMON Y517 HAKKA/N0466F330 Y517 ESKAS Y303 ENTAK/N0479F320 Y30 SWAMP
Aircraft B77L/H-SDE2FGHIJ1J3J5M1P2RWXYZ/LB1D1

Departure

Time 2026-05-06 08:50
Airport Incheon International Airport (RKSI)

Arrival

Time 2026-05-06 10:31
Airport Narita International Airport (RJAA)
Time Latitude Longitude Altitude Speed Heading
2026-05-06 08:35 37.46594 126.46799 36 ft 0 kts 144°
2026-05-06 08:35 37.46601 126.46793 36 ft 2 kts 144°
2026-05-06 08:36 37.46617 126.46777 36 ft 2 kts 144°
2026-05-06 08:36 37.46629 126.46767 36 ft 2 kts 144°
2026-05-06 08:36 37.46637 126.46760 36 ft 2 kts 146°
2026-05-06 08:36 37.46656 126.46752 36 ft 2 kts 186°
2026-05-06 08:37 37.46666 126.46755 36 ft 2 kts 202°
2026-05-06 08:37 37.46681 126.46768 36 ft 0 kts 233°
2026-05-06 08:37 37.46684 126.46774 36 ft 0 kts 234°
2026-05-06 08:38 37.46684 126.46773 36 ft 0 kts 234°
2026-05-06 08:39 37.46677 126.46761 36 ft 3 kts 234°
2026-05-06 08:39 37.46652 126.46717 36 ft 8 kts 234°
2026-05-06 08:39 37.46609 126.46641 36 ft 12 kts 234°
2026-05-06 08:39 37.46552 126.46540 36 ft 15 kts 234°
2026-05-06 08:40 37.46488 126.46429 36 ft 15 kts 234°
2026-05-06 08:40 37.46431 126.46327 36 ft 13 kts 234°
2026-05-06 08:40 37.46373 126.46246 36 ft 11 kts 221°
2026-05-06 08:40 37.46333 126.46164 36 ft 11 kts 287°
2026-05-06 08:41 37.46378 126.46116 36 ft 14 kts 324°
2026-05-06 08:41 37.46500 126.46008 36 ft 17 kts 324°
2026-05-06 08:41 37.46610 126.45911 36 ft 20 kts 324°
2026-05-06 08:41 37.46730 126.45803 36 ft 21 kts 324°
2026-05-06 08:42 37.46806 126.45735 36 ft 19 kts 324°
2026-05-06 08:42 37.46947 126.45611 36 ft 17 kts 324°
2026-05-06 08:42 37.47010 126.45554 36 ft 16 kts 324°
2026-05-06 08:42 37.47130 126.45448 36 ft 16 kts 324°
2026-05-06 08:43 37.47230 126.45358 36 ft 18 kts 324°
2026-05-06 08:43 37.47341 126.45258 36 ft 20 kts 324°
2026-05-06 08:43 37.47454 126.45158 36 ft 19 kts 324°
2026-05-06 08:43 37.47557 126.45066 36 ft 17 kts 324°
2026-05-06 08:44 37.47621 126.45010 36 ft 16 kts 324°
2026-05-06 08:44 37.47709 126.44932 36 ft 15 kts 324°
2026-05-06 08:44 37.47823 126.44832 36 ft 14 kts 324°
2026-05-06 08:44 37.47907 126.44756 36 ft 14 kts 324°
2026-05-06 08:45 37.47987 126.44684 36 ft 13 kts 320°
2026-05-06 08:45 37.47986 126.44588 36 ft 11 kts 235°
2026-05-06 08:45 37.47955 126.44533 36 ft 11 kts 234°
2026-05-06 08:45 37.47888 126.44415 36 ft 13 kts 234°
2026-05-06 08:46 37.47834 126.44320 36 ft 12 kts 240°
2026-05-06 08:46 37.47841 126.44252 36 ft 12 kts 304°
2026-05-06 08:46 37.47933 126.44158 36 ft 13 kts 325°
2026-05-06 08:46 37.48013 126.44088 36 ft 14 kts 324°
2026-05-06 08:47 37.48068 126.44039 36 ft 14 kts 324°
2026-05-06 08:47 37.48185 126.43935 36 ft 15 kts 324°
2026-05-06 08:47 37.48252 126.43874 36 ft 9 kts 320°
2026-05-06 08:47 37.48259 126.43805 36 ft 8 kts 244°
2026-05-06 08:48 37.48236 126.43762 36 ft 8 kts 234°
2026-05-06 08:48 37.48186 126.43676 36 ft 8 kts 234°
2026-05-06 08:48 37.48143 126.43663 36 ft 4 kts 148°
2026-05-06 08:48 37.48128 126.43675 36 ft 0 kts 144°
2026-05-06 08:49 37.48113 126.43689 36 ft 14 kts 144°
2026-05-06 08:49 37.47968 126.43819 36 ft 61 kts 144°
2026-05-06 08:49 37.47161 126.44537 36 ft 148 kts 145°
2026-05-06 08:49 37.46532 126.45095 54 ft 181 kts 146°
2026-05-06 08:50 37.45209 126.46508 850 ft 195 kts 136°
2026-05-06 08:50 37.44342 126.47765 1808 ft 191 kts 134°
2026-05-06 08:50 37.43479 126.49057 2287 ft 199 kts 134°
2026-05-06 08:50 37.42590 126.50397 2830 ft 203 kts 134°
2026-05-06 08:51 37.41676 126.51771 3325 ft 211 kts 134°
2026-05-06 08:51 37.41031 126.52734 3545 ft 222 kts 134°
2026-05-06 08:51 37.40004 126.54275 3912 ft 239 kts 133°
2026-05-06 08:51 37.38506 126.56522 4479 ft 261 kts 133°
2026-05-06 08:52 37.37239 126.58172 4953 ft 270 kts 148°
2026-05-06 08:52 37.35548 126.59219 5611 ft 271 kts 162°
2026-05-06 08:52 37.33803 126.60002 6373 ft 271 kts 163°
2026-05-06 08:52 37.32598 126.60519 6829 ft 274 kts 163°
2026-05-06 08:53 37.30801 126.61292 7477 ft 279 kts 163°
2026-05-06 08:53 37.28566 126.62980 8286 ft 289 kts 133°
2026-05-06 08:53 37.27811 126.64361 8647 ft 296 kts 115°
2026-05-06 08:53 37.27345 126.66882 9230 ft 303 kts 91°
2026-05-06 08:54 37.27430 126.69528 9863 ft 305 kts 86°
2026-05-06 08:54 37.27603 126.72179 10278 ft 315 kts 86°
2026-05-06 08:54 37.27829 126.75986 10604 ft 339 kts 86°
2026-05-06 08:54 37.27937 126.77955 10804 ft 349 kts 86°
2026-05-06 08:55 37.28165 126.82169 11225 ft 373 kts 86°
2026-05-06 08:55 37.28281 126.84338 11410 ft 383 kts 87°
2026-05-06 08:55 37.28519 126.88822 12202 ft 392 kts 87°
2026-05-06 08:55 37.28771 126.92221 12939 ft 397 kts 84°
2026-05-06 08:56 37.28991 126.94534 13399 ft 401 kts 84°
2026-05-06 08:56 37.29318 126.98008 14164 ft 407 kts 84°
2026-05-06 08:56 37.29648 127.01553 14995 ft 412 kts 84°
2026-05-06 08:56 37.29977 127.05128 15828 ft 417 kts 84°
2026-05-06 08:57 37.30419 127.09991 16845 ft 426 kts 83°
2026-05-06 08:57 37.30754 127.12442 17351 ft 430 kts 76°
2026-05-06 08:57 37.31916 127.17230 18397 ft 436 kts 70°
2026-05-06 08:57 37.33027 127.20808 19113 ft 440 kts 62°
2026-05-06 08:58 37.34031 127.23063 19607 ft 442 kts 54°
2026-05-06 08:58 37.35897 127.26118 20383 ft 442 kts 44°
2026-05-06 08:58 37.38133 127.28712 21116 ft 441 kts 33°
2026-05-06 08:58 37.40635 127.30949 21897 ft 441 kts 30°
2026-05-06 08:59 37.43134 127.33122 22667 ft 443 kts 32°
2026-05-06 08:59 37.45486 127.35651 23344 ft 451 kts 41°
2026-05-06 08:59 37.47541 127.38733 23927 ft 462 kts 51°
2026-05-06 08:59 37.49176 127.42222 24518 ft 471 kts 61°
2026-05-06 09:00 37.50352 127.46104 25191 ft 478 kts 71°
2026-05-06 09:00 37.51057 127.50201 25813 ft 484 kts 77°
2026-05-06 09:00 37.51649 127.54425 26449 ft 488 kts 77°
2026-05-06 09:00 37.52457 127.60032 27228 ft 495 kts 76°
2026-05-06 09:01 37.52877 127.62865 27602 ft 498 kts 76°
2026-05-06 09:01 37.53521 127.67151 28180 ft 503 kts 76°
2026-05-06 09:01 37.54195 127.71570 28783 ft 507 kts 76°
2026-05-06 09:01 37.54874 127.75974 29370 ft 511 kts 75°
2026-05-06 09:02 37.55551 127.80349 29921 ft 516 kts 75°
2026-05-06 09:02 37.56249 127.84840 30404 ft 521 kts 75°
2026-05-06 09:02 37.57178 127.90813 31116 ft 526 kts 75°
2026-05-06 09:02 37.57875 127.95302 31824 ft 525 kts 74°
2026-05-06 09:03 37.58580 127.99847 32542 ft 523 kts 75°
2026-05-06 09:03 37.59044 128.02837 32954 ft 522 kts 74°
2026-05-06 09:03 37.59734 128.07288 33592 ft 521 kts 75°
2026-05-06 09:03 37.60422 128.11739 34263 ft 520 kts 74°
2026-05-06 09:04 37.61122 128.16272 34933 ft 519 kts 74°
2026-05-06 09:04 37.62030 128.22177 35917 ft 515 kts 73°
2026-05-06 09:04 37.62476 128.25079 36337 ft 514 kts 72°
2026-05-06 09:04 37.63156 128.29512 36935 ft 513 kts 72°
2026-05-06 09:05 37.64067 128.35446 37024 ft 521 kts 72°
2026-05-06 09:05 37.65443 128.44479 37024 ft 520 kts 73°
2026-05-06 09:06 37.66803 128.53450 37028 ft 521 kts 73°
2026-05-06 09:06 37.67931 128.60941 37027 ft 521 kts 73°
2026-05-06 09:07 37.68682 128.71611 37000 ft 528 kts 90°
2026-05-06 09:07 37.67512 128.79225 36982 ft 543 kts 105°
2026-05-06 09:07 37.65501 128.85066 36981 ft 543 kts 118°
2026-05-06 09:08 37.63589 128.89148 36977 ft 544 kts 120°
2026-05-06 09:08 37.60321 128.95898 36951 ft 544 kts 120°
2026-05-06 09:09 37.55738 129.05366 36959 ft 542 kts 120°
2026-05-06 09:09 37.51830 129.13448 36955 ft 540 kts 119°
2026-05-06 09:10 37.48563 129.20195 36946 ft 541 kts 120°
2026-05-06 09:10 37.44656 129.28255 36951 ft 540 kts 119°
2026-05-06 09:11 37.40757 129.36289 36949 ft 539 kts 120°
2026-05-06 09:11 37.36874 129.44275 36950 ft 541 kts 119°
2026-05-06 09:12 37.32967 129.52292 36963 ft 537 kts 119°
2026-05-06 09:12 37.28400 129.61639 36956 ft 538 kts 119°
2026-05-06 09:13 37.24488 129.69626 36953 ft 538 kts 120°
2026-05-06 09:13 37.21237 129.76251 36959 ft 537 kts 120°
2026-05-06 09:14 37.16677 129.85518 36952 ft 536 kts 120°
2026-05-06 09:14 37.13394 129.92172 36945 ft 536 kts 119°
2026-05-06 09:15 37.08849 130.01367 36951 ft 536 kts 120°
2026-05-06 09:15 37.05558 130.08006 36952 ft 536 kts 119°
2026-05-06 09:16 37.01653 130.15869 36956 ft 534 kts 119°
2026-05-06 09:16 36.97753 130.23702 36963 ft 534 kts 119°
2026-05-06 09:17 36.93814 130.31595 36962 ft 533 kts 119°
2026-05-06 09:17 36.89900 130.39415 36963 ft 534 kts 119°
2026-05-06 09:18 36.86003 130.47201 36960 ft 531 kts 119°
2026-05-06 09:18 36.82085 130.55016 36957 ft 530 kts 120°
2026-05-06 09:19 36.78180 130.62778 36974 ft 532 kts 120°
2026-05-06 09:19 36.74251 130.70550 36983 ft 528 kts 121°
2026-05-06 09:20 36.69691 130.79562 36976 ft 529 kts 121°
2026-05-06 09:20 36.65780 130.87270 36988 ft 527 kts 120°
2026-05-06 09:21 36.61894 130.94930 36985 ft 525 kts 121°
2026-05-06 09:21 36.57967 131.02622 36985 ft 524 kts 121°
2026-05-06 09:22 36.54740 131.08929 37003 ft 522 kts 121°
2026-05-06 09:22 36.50847 131.16525 37005 ft 523 kts 121°
2026-05-06 09:23 36.46957 131.24115 37013 ft 522 kts 122°
2026-05-06 09:23 36.43063 131.31712 37017 ft 522 kts 122°
2026-05-06 09:24 36.39344 131.39401 37024 ft 521 kts 113°
2026-05-06 09:24 36.37139 131.49405 37024 ft 516 kts 92°
2026-05-06 09:25 36.36847 131.56779 37029 ft 514 kts 89°
2026-05-06 09:25 36.36603 131.65602 37033 ft 515 kts 90°
2026-05-06 09:26 36.36332 131.74457 37024 ft 513 kts 90°
2026-05-06 09:26 36.36044 131.83295 37026 ft 513 kts 90°
2026-05-06 09:27 36.35710 131.93593 37027 ft 515 kts 90°
2026-05-06 09:27 36.35466 132.00954 37034 ft 514 kts 90°
2026-05-06 09:28 36.35117 132.11217 37023 ft 515 kts 90°
2026-05-06 09:28 36.34800 132.20081 37028 ft 516 kts 91°
2026-05-06 09:29 36.34474 132.28950 37034 ft 519 kts 91°
2026-05-06 09:29 36.34192 132.36421 37033 ft 521 kts 91°
2026-05-06 09:30 36.33804 132.46815 37039 ft 520 kts 91°
2026-05-06 09:30 36.33442 132.55808 37044 ft 522 kts 91°
2026-05-06 09:31 36.33094 132.64798 37048 ft 524 kts 91°
2026-05-06 09:31 36.32798 132.72293 37034 ft 523 kts 93°
2026-05-06 09:32 36.32438 132.81244 37037 ft 524 kts 93°
2026-05-06 09:32 36.32066 132.90245 37040 ft 525 kts 92°
2026-05-06 09:33 36.31622 133.00757 37045 ft 525 kts 94°
2026-05-06 09:33 36.31231 133.09845 37050 ft 527 kts 94°
2026-05-06 09:34 36.30904 133.17307 37047 ft 525 kts 93°
2026-05-06 09:34 36.30431 133.27924 37051 ft 529 kts 94°
2026-05-06 09:35 36.30088 133.35489 37061 ft 534 kts 94°
2026-05-06 09:35 36.29597 133.46147 37060 ft 534 kts 94°
2026-05-06 09:36 36.29165 133.55379 37069 ft 538 kts 95°
2026-05-06 09:36 36.28724 133.64624 37072 ft 539 kts 94°
2026-05-06 09:37 36.28354 133.72290 37054 ft 539 kts 96°
2026-05-06 09:37 36.27897 133.81581 37055 ft 541 kts 96°
2026-05-06 09:38 36.27354 133.92421 37065 ft 541 kts 96°
2026-05-06 09:38 36.26883 134.01683 37061 ft 544 kts 96°
2026-05-06 09:39 36.26481 134.09476 37073 ft 545 kts 97°
2026-05-06 09:39 36.25991 134.18831 37078 ft 547 kts 97°
2026-05-06 09:40 36.25495 134.28194 37073 ft 547 kts 97°
2026-05-06 09:40 36.24728 134.42363 37074 ft 550 kts 97°
2026-05-06 09:41 36.24845 134.53451 37076 ft 558 kts 82°
2026-05-06 09:41 36.26109 134.61316 37081 ft 565 kts 79°
2026-05-06 09:42 36.27714 134.70783 37069 ft 563 kts 80°
2026-05-06 09:42 36.29309 134.80263 37067 ft 566 kts 80°
2026-05-06 09:43 36.31155 134.91332 37073 ft 567 kts 81°
2026-05-06 09:43 36.32743 135.00923 37073 ft 567 kts 80°
2026-05-06 09:44 36.34057 135.08900 37075 ft 572 kts 81°
2026-05-06 09:44 36.35635 135.18529 37076 ft 566 kts 81°
2026-05-06 09:45 36.37455 135.29706 37080 ft 570 kts 81°
2026-05-06 09:45 36.39011 135.39317 37083 ft 571 kts 81°
2026-05-06 09:46 36.40303 135.47340 37082 ft 571 kts 81°
2026-05-06 09:46 36.41857 135.57036 37083 ft 574 kts 82°
2026-05-06 09:47 36.43390 135.66652 37075 ft 573 kts 81°
2026-05-06 09:47 36.44923 135.76320 37065 ft 573 kts 81°
2026-05-06 09:48 36.46461 135.86079 37072 ft 577 kts 83°
2026-05-06 09:48 36.48241 135.97432 37074 ft 576 kts 83°
2026-05-06 09:49 36.49512 136.05586 37082 ft 576 kts 83°
2026-05-06 09:49 36.51025 136.15352 37071 ft 581 kts 82°
2026-05-06 09:50 36.52788 136.26791 37091 ft 580 kts 82°
2026-05-06 09:50 36.54046 136.35004 37095 ft 582 kts 83°
2026-05-06 09:51 36.55553 136.44900 37101 ft 581 kts 82°
2026-05-06 09:51 36.57046 136.54750 37111 ft 585 kts 83°
2026-05-06 09:52 36.58541 136.64671 37111 ft 585 kts 83°
2026-05-06 09:52 36.60038 136.74672 37105 ft 589 kts 84°
2026-05-06 09:53 36.61774 136.86343 37113 ft 589 kts 83°
2026-05-06 09:53 36.63010 136.94699 37119 ft 590 kts 84°
2026-05-06 09:54 36.64465 137.04741 37123 ft 593 kts 83°
2026-05-06 09:54 36.65910 137.14833 37117 ft 592 kts 83°
2026-05-06 09:55 36.67344 137.24899 37124 ft 594 kts 83°
2026-05-06 09:55 36.68778 137.35028 37135 ft 594 kts 84°
2026-05-06 09:56 36.70191 137.45065 37150 ft 595 kts 84°
2026-05-06 09:56 36.71609 137.55211 37158 ft 596 kts 83°
2026-05-06 09:57 36.73027 137.65419 37199 ft 597 kts 85°
2026-05-06 09:57 36.74426 137.75546 37237 ft 595 kts 84°
2026-05-06 09:58 36.75817 137.85695 37218 ft 597 kts 85°
2026-05-06 09:58 36.77208 137.95908 37177 ft 597 kts 85°
2026-05-06 09:59 36.78581 138.06050 37165 ft 598 kts 85°
2026-05-06 09:59 36.80205 138.17950 37156 ft 600 kts 83°
2026-05-06 10:00 36.81374 138.26434 37155 ft 598 kts 84°
2026-05-06 10:00 36.82769 138.36641 37170 ft 597 kts 84°
2026-05-06 10:01 36.84155 138.46867 37179 ft 599 kts 83°
2026-05-06 10:01 36.85518 138.57098 37190 ft 602 kts 84°
2026-05-06 10:02 36.86866 138.67345 37164 ft 601 kts 84°
2026-05-06 10:02 36.88205 138.77589 37160 ft 601 kts 84°
2026-05-06 10:03 36.89542 138.87883 37157 ft 602 kts 85°
2026-05-06 10:03 36.90870 138.98189 37160 ft 602 kts 84°
2026-05-06 10:04 36.92195 139.08540 37160 ft 604 kts 84°
2026-05-06 10:04 36.93538 139.18852 37165 ft 603 kts 85°
2026-05-06 10:05 36.94873 139.29141 37171 ft 603 kts 84°
2026-05-06 10:05 36.95535 139.34267 37000 ft 597 kts 84°
2026-05-06 10:05 36.96188 139.39354 36053 ft 602 kts 83°
2026-05-06 10:06 36.96850 139.44536 34933 ft 609 kts 84°
2026-05-06 10:06 36.97740 139.51517 34152 ft 603 kts 84°
2026-05-06 10:06 36.98172 139.54915 33838 ft 599 kts 83°
2026-05-06 10:06 36.99034 139.61723 33094 ft 593 kts 84°
2026-05-06 10:07 36.99455 139.65056 32707 ft 591 kts 83°
2026-05-06 10:07 37.00097 139.70166 32052 ft 589 kts 84°
2026-05-06 10:07 37.00724 139.75166 31417 ft 586 kts 85°
2026-05-06 10:07 37.01349 139.80193 30788 ft 582 kts 85°
2026-05-06 10:08 37.01958 139.85129 30182 ft 579 kts 85°
2026-05-06 10:08 37.02781 139.91772 29353 ft 575 kts 85°
2026-05-06 10:08 37.03184 139.94987 28957 ft 573 kts 84°
2026-05-06 10:08 37.03805 139.99896 28369 ft 571 kts 84°
2026-05-06 10:09 37.04612 140.06412 27554 ft 567 kts 83°
2026-05-06 10:09 37.05203 140.11273 26868 ft 562 kts 83°
2026-05-06 10:09 37.05583 140.14452 26444 ft 552 kts 83°
2026-05-06 10:09 37.06140 140.19122 25864 ft 535 kts 82°
2026-05-06 10:10 37.06613 140.23636 25270 ft 520 kts 88°
2026-05-06 10:10 37.06501 140.29463 24614 ft 493 kts 101°
2026-05-06 10:10 37.06094 140.32269 24387 ft 477 kts 108°
2026-05-06 10:10 37.05109 140.36102 24056 ft 454 kts 117°
2026-05-06 10:11 37.03725 140.39506 23581 ft 436 kts 127°
2026-05-06 10:11 37.01956 140.42505 22873 ft 424 kts 137°
2026-05-06 10:11 36.99858 140.44997 22078 ft 415 kts 148°
2026-05-06 10:11 36.97479 140.46930 21326 ft 402 kts 159°
2026-05-06 10:12 36.94950 140.48219 20678 ft 387 kts 170°
2026-05-06 10:12 36.92352 140.48865 19983 ft 376 kts 180°
2026-05-06 10:12 36.89775 140.49110 19408 ft 375 kts 181°
2026-05-06 10:12 36.87172 140.49289 18958 ft 372 kts 181°
2026-05-06 10:13 36.84455 140.49445 18518 ft 368 kts 181°
2026-05-06 10:13 36.80863 140.49622 17854 ft 365 kts 181°
2026-05-06 10:13 36.79186 140.49692 17549 ft 364 kts 181°
2026-05-06 10:13 36.76661 140.49799 17126 ft 360 kts 181°
2026-05-06 10:14 36.74134 140.49896 16680 ft 358 kts 181°
2026-05-06 10:14 36.71652 140.49988 16262 ft 354 kts 181°
2026-05-06 10:14 36.69194 140.50070 15803 ft 352 kts 181°
2026-05-06 10:14 36.66753 140.50137 15350 ft 350 kts 181°
2026-05-06 10:15 36.64331 140.50191 14903 ft 348 kts 181°
2026-05-06 10:15 36.61925 140.50236 14460 ft 346 kts 181°
2026-05-06 10:15 36.59528 140.50276 14031 ft 344 kts 181°
2026-05-06 10:15 36.56333 140.50310 13452 ft 341 kts 181°
2026-05-06 10:16 36.53972 140.50314 13029 ft 338 kts 181°
2026-05-06 10:16 36.52406 140.50316 12758 ft 336 kts 182°
2026-05-06 10:16 36.50109 140.50320 12373 ft 333 kts 182°
2026-05-06 10:16 36.47023 140.50345 11843 ft 330 kts 182°
2026-05-06 10:17 36.44737 140.50352 11445 ft 327 kts 181°
2026-05-06 10:17 36.43222 140.50354 11178 ft 325 kts 181°
2026-05-06 10:17 36.40234 140.50356 10634 ft 322 kts 181°
2026-05-06 10:17 36.38754 140.50356 10385 ft 320 kts 181°
2026-05-06 10:18 36.36518 140.50345 10042 ft 315 kts 181°
2026-05-06 10:18 36.33701 140.50330 9979 ft 295 kts 181°
2026-05-06 10:18 36.32349 140.50326 9975 ft 285 kts 182°
2026-05-06 10:18 36.30410 140.50328 9913 ft 273 kts 181°
2026-05-06 10:19 36.28542 140.50331 9662 ft 268 kts 182°
2026-05-06 10:19 36.26672 140.50333 9280 ft 268 kts 182°
2026-05-06 10:19 36.24812 140.50343 8938 ft 268 kts 179°
2026-05-06 10:19 36.22348 140.50772 8546 ft 265 kts 172°
2026-05-06 10:20 36.20528 140.51183 8175 ft 266 kts 172°
2026-05-06 10:20 36.18720 140.51592 8003 ft 261 kts 172°
2026-05-06 10:20 36.17526 140.51866 7989 ft 265 kts 172°
2026-05-06 10:20 36.15095 140.52429 7980 ft 264 kts 172°
2026-05-06 10:21 36.13898 140.52699 7920 ft 261 kts 172°
2026-05-06 10:21 36.11516 140.53244 7490 ft 262 kts 172°
2026-05-06 10:21 36.10334 140.53516 7300 ft 261 kts 172°
2026-05-06 10:21 36.07952 140.54038 6916 ft 258 kts 178°
2026-05-06 10:22 36.06773 140.53941 6644 ft 256 kts 197°
2026-05-06 10:22 36.04775 140.52487 6187 ft 250 kts 220°
2026-05-06 10:22 36.03899 140.51546 6019 ft 248 kts 221°
2026-05-06 10:22 36.02619 140.50143 5733 ft 246 kts 222°
2026-05-06 10:23 36.01406 140.47797 5270 ft 247 kts 256°
2026-05-06 10:23 36.01291 140.46388 5079 ft 247 kts 266°
2026-05-06 10:23 36.01283 140.44279 4761 ft 247 kts 267°
2026-05-06 10:23 36.01289 140.41476 4347 ft 246 kts 267°
2026-05-06 10:24 36.01301 140.40071 4150 ft 245 kts 267°
2026-05-06 10:24 36.01310 140.38026 4136 ft 231 kts 267°
2026-05-06 10:24 36.01326 140.36105 4125 ft 216 kts 266°
2026-05-06 10:24 36.01319 140.34306 4058 ft 204 kts 266°
2026-05-06 10:25 36.01090 140.32636 3767 ft 197 kts 242°
2026-05-06 10:25 36.00126 140.30719 3351 ft 196 kts 233°
2026-05-06 10:25 35.99606 140.29819 3184 ft 194 kts 232°
2026-05-06 10:25 35.98810 140.28481 2991 ft 189 kts 231°
2026-05-06 10:26 35.97904 140.27290 2968 ft 192 kts 211°
2026-05-06 10:26 35.96195 140.26814 2951 ft 193 kts 173°
2026-05-06 10:26 35.95336 140.27156 2965 ft 195 kts 158°
2026-05-06 10:26 35.94137 140.27946 2963 ft 197 kts 154°
2026-05-06 10:27 35.92947 140.28822 2956 ft 199 kts 151°
2026-05-06 10:27 35.91792 140.29733 2697 ft 190 kts 153°
2026-05-06 10:27 35.90693 140.30502 2453 ft 175 kts 154°
2026-05-06 10:27 35.89329 140.31471 2167 ft 165 kts 153°
2026-05-06 10:28 35.88665 140.31941 2019 ft 165 kts 152°
2026-05-06 10:28 35.87347 140.32893 1733 ft 162 kts 152°
2026-05-06 10:28 35.86418 140.33566 1512 ft 149 kts 152°
2026-05-06 10:28 35.85831 140.33987 1402 ft 145 kts 152°
2026-05-06 10:29 35.84965 140.34613 1207 ft 143 kts 152°
2026-05-06 10:29 35.83819 140.35439 944 ft 143 kts 151°
2026-05-06 10:29 35.83250 140.35849 801 ft 143 kts 151°
2026-05-06 10:29 35.82103 140.36658 533 ft 144 kts 150°
2026-05-06 10:30 35.81518 140.37082 399 ft 144 kts 150°
2026-05-06 10:30 35.80654 140.37711 211 ft 145 kts 149°
2026-05-06 10:30 35.79808 140.38322 145 ft 127 kts 149°
2026-05-06 10:30 35.79075 140.38852 139 ft 56 kts 149°
2026-05-06 10:31 35.78894 140.38982 139 ft 35 kts 149°
2026-05-06 10:31 35.78692 140.39070 142 ft 28 kts 174°
2026-05-06 10:31 35.78507 140.39101 142 ft 25 kts 167°
2026-05-06 10:31 35.78348 140.39145 142 ft 21 kts 166°
2026-05-06 10:32 35.78234 140.39182 144 ft 12 kts 165°
2026-05-06 10:32 35.78147 140.39186 146 ft 8 kts 215°
2026-05-06 10:32 35.78124 140.39153 146 ft 7 kts 236°
2026-05-06 10:32 35.78080 140.39113 147 ft 8 kts 187°
2026-05-06 10:33 35.78006 140.39154 149 ft 9 kts 150°
2026-05-06 10:33 35.77970 140.39191 149 ft 10 kts 122°
2026-05-06 10:33 35.77932 140.39282 148 ft 13 kts 116°
2026-05-06 10:33 35.77887 140.39392 148 ft 14 kts 116°
2026-05-06 10:34 35.77831 140.39496 149 ft 13 kts 144°
2026-05-06 10:34 35.77751 140.39554 149 ft 13 kts 149°
2026-05-06 10:34 35.77669 140.39612 149 ft 13 kts 149°
2026-05-06 10:34 35.77584 140.39674 149 ft 14 kts 149°
2026-05-06 10:35 35.77492 140.39740 147 ft 16 kts 149°
2026-05-06 10:35 35.77392 140.39813 146 ft 17 kts 149°
2026-05-06 10:35 35.77285 140.39890 144 ft 18 kts 149°
2026-05-06 10:35 35.77173 140.39970 143 ft 19 kts 149°
2026-05-06 10:36 35.77050 140.39989 143 ft 17 kts 204°
2026-05-06 10:36 35.76946 140.39931 142 ft 15 kts 204°
2026-05-06 10:36 35.76870 140.39883 142 ft 10 kts 226°
2026-05-06 10:36 35.76842 140.39807 143 ft 9 kts 237°
2026-05-06 10:37 35.76785 140.39766 141 ft 9 kts 204°
2026-05-06 10:37 35.76714 140.39694 140 ft 10 kts 224°
2026-05-06 10:37 35.76674 140.39658 139 ft 10 kts 207°
2026-05-06 10:37 35.76606 140.39621 139 ft 11 kts 204°
2026-05-06 10:38 35.76503 140.39563 138 ft 13 kts 204°
2026-05-06 10:38 35.76448 140.39533 138 ft 13 kts 204°
2026-05-06 10:38 35.76365 140.39487 140 ft 12 kts 204°
2026-05-06 10:38 35.76282 140.39441 140 ft 13 kts 203°
2026-05-06 10:39 35.76198 140.39394 141 ft 13 kts 204°
2026-05-06 10:39 35.76109 140.39345 141 ft 15 kts 204°
2026-05-06 10:39 35.76004 140.39288 139 ft 18 kts 204°
2026-05-06 10:39 35.75848 140.39195 139 ft 18 kts 216°
2026-05-06 10:40 35.75795 140.39113 138 ft 18 kts 240°
2026-05-06 10:40 35.75734 140.38982 139 ft 15 kts 239°
2026-05-06 10:40 35.75679 140.38866 139 ft 15 kts 239°
2026-05-06 10:40 35.75626 140.38756 141 ft 13 kts 239°
2026-05-06 10:41 35.75597 140.38647 142 ft 14 kts 266°
2026-05-06 10:41 35.75617 140.38533 143 ft 13 kts 316°
2026-05-06 10:41 35.75733 140.38444 142 ft 16 kts 330°
2026-05-06 10:41 35.75836 140.38371 142 ft 18 kts 329°
2026-05-06 10:42 35.75908 140.38318 144 ft 18 kts 329°
2026-05-06 10:42 35.76017 140.38240 146 ft 17 kts 329°
2026-05-06 10:42 35.76123 140.38162 145 ft 18 kts 330°
2026-05-06 10:42 35.76277 140.38051 143 ft 19 kts 329°
2026-05-06 10:43 35.76358 140.37993 142 ft 20 kts 329°
2026-05-06 10:43 35.76510 140.37883 140 ft 17 kts 329°
2026-05-06 10:43 35.76589 140.37845 139 ft 9 kts 18°
2026-05-06 10:44 35.76650 140.37949 139 ft 10 kts 60°
2026-05-06 10:44 35.76709 140.37987 140 ft 10 kts 351°
2026-05-06 10:44 35.76774 140.37949 140 ft 10 kts 330°
2026-05-06 10:44 35.76841 140.37901 140 ft 11 kts 329°
2026-05-06 10:45 35.76928 140.37839 139 ft 6 kts 334°
2026-05-06 10:45 35.76965 140.37851 139 ft 6 kts 52°
2026-05-06 10:45 35.76985 140.37891 141 ft 3 kts 59°
2026-05-06 10:45 35.76994 140.37909 142 ft 1 kts 59°
2026-05-06 10:46 35.76998 140.37917 142 ft 1 kts 59°
2026-05-06 10:46 35.77002 140.37924 143 ft 0 kts 59°
2026-05-06 10:46 35.77002 140.37926 143 ft 0 kts 60°
2026-05-06 10:50 35.77002 140.37924 143 ft 0 kts 60°